Location: Zagreb
(45.8000°N, 16.0000°E)
Time: 07:27:25
(UTC+02:00)

Courier 1B Rocket - Pass Details

Date: 08 August 2022
Orbit: 920 x 1202 km, 28.2° (Epoch: 25 September)

Event Time Altitude Azimuth Distance (km) Brightness Sun altitude
Rises 21:26:28 0° 243° (WSW) 3,702 8.4 -11.5°
Reaches altitude 10° 21:30:12 10° 223° (SW) 2,807 7.5 -12.0°
Maximum altitude 21:34:10 16° 187° (S) 2,434 6.8 -12.5°
Enters shadow 21:37:21 12° 159° (SSE) 2,749 6.8 -12.9°
Drops below altitude 10° 21:38:18 10° 152° (SSE) 2,930 - -13.1°
Sets 21:42:19 0° 132° (SE) 3,945 - -13.6°
